FW1847 Weather Reports


Display with metric or nautical units.
time (UTC)temp
F
wind
direction
speed
MPH
gust
MPH
rain 1hr
in
rain 24hr
in
rain mn
in
humidity
%
barometer
mb
20260506174200 49 11 1.0 6.0 0.01 0.22 0.22 86 1009.3
20260506173653 49 13 2.0 6.0 0.01 0.22 0.22 85 1009.2
20260506173147 49 336 2.0 5.0 0.01 0.22 0.22 85 1009.2
20260506172642 49 17 2.0 5.0 0.01 0.22 0.22 85 1009.2
20260506172135 49 58 2.0 7.0 0.02 0.22 0.22 85 1009.1
20260506171124 49 61 1.0 5.0 0.02 0.22 0.22 86 1009.0
20260506170617 49 57 1.0 3.0 0.01 0.21 0.22 86 1009.0
20260506170112 49 57 1.0 3.0 0.02 0.21 0.21 86 1009.0
20260506165059 49 51 1.0 5.0 0.02 0.21 0.21 86 1009.0
20260506164558 49 43 0.0 2.0 0.02 0.21 0.21 86 1009.1
20260506164044 49 43 1.0 3.0 0.02 0.21 0.21 86 1009.0
20260506163537 49 40 1.0 3.0 0.02 0.21 0.21 86 1009.0
20260506163031 49 37 1.0 3.0 0.02 0.21 0.21 86 1009.0
20260506162020 49 37 2.0 4.0 0.02 0.20 0.20 86 1009.0
20260506161008 49 37 1.0 3.0 0.03 0.20 0.20 86 1009.0
20260506160501 49 38 1.0 4.0 0.03 0.20 0.20 86 1009.0
20260506155956 49 38 2.0 4.0 0.03 0.20 0.20 85 1009.1
20260506155450 49 24 2.0 6.0 0.03 0.20 0.20 85 1009.1
20260506154948 49 22 3.0 6.0 0.03 0.20 0.20 84 1009.1
20260506152945 49 10 2.0 6.0 0.03 0.18 0.19 84 1009.1
20260506152445 49 16 2.0 6.0 0.03 0.18 0.18 84 1009.1
20260506151945 49 16 3.0 7.0 0.03 0.18 0.18 84 1009.1
20260506151446 49 34 2.0 7.0 0.03 0.17 0.17 84 1009.1
20260506150946 49 25 3.0 7.0 0.04 0.17 0.17 83 1009.2
20260506150445 49 352 4.0 7.0 0.04 0.17 0.17 83 1009.1
20260506145945 49 26 4.0 8.0 0.04 0.17 0.17 83 1009.1
20260506145446 49 6 3.0 8.0 0.04 0.17 0.17 83 1009.0
20260506144946 49 37 3.0 8.0 0.05 0.17 0.17 83 1009.1
20260506144446 48 42 4.0 10.0 0.05 0.16 0.16 82 1009.1
20260506143445 48 23 4.0 9.0 0.06 0.16 0.16 82 1009.0
20260506142945 48 10 4.0 9.0 0.05 0.15 0.15 83 1009.0
20260506142446 48 23 4.0 8.0 0.06 0.15 0.15 83 1009.0
20260506141946 48 41 3.0 8.0 0.06 0.15 0.15 83 1009.0
20260506141447 48 15 4.0 8.0 0.06 0.14 0.14 83 1008.9
20260506140944 48 14 4.0 8.0 0.05 0.13 0.13 83 1009.0
20260506135945 48 24 3.0 8.0 0.05 0.13 0.13 83 1009.0
20260506135448 48 11 3.0 8.0 0.05 0.13 0.13 83 1009.0
20260506134942 48 19 2.0 8.0 0.04 0.12 0.12 83 1009.0
20260506134441 48 5 2.0 7.0 0.04 0.11 0.12 83 1009.0
20260506133940 48 33 3.0 7.0 0.04 0.11 0.11 82 1009.0
20260506133442 48 32 4.0 8.0 0.04 0.10 0.10 82 1009.1
20260506132943 48 21 5.0 10.0 0.04 0.10 0.10 82 1009.1
20260506131940 48 13 4.0 10.0 0.05 0.09 0.09 81 1009.0
20260506131441 48 50 4.0 11.0 0.04 0.09 0.09 81 1009.0
20260506130944 48 20 5.0 11.0 0.05 0.09 0.09 80 1008.9
20260506130441 48 352 4.0 11.0 0.05 0.09 0.09 80 1008.9
20260506125938 48 23 4.0 11.0 0.05 0.08 0.08 80 1008.9
20260506125439 48 21 5.0 11.0 0.05 0.08 0.08 80 1008.9
20260506124938 48 24 5.0 11.0 0.05 0.08 0.08 80 1008.9
20260506124436 48 33 6.0 12.0 0.05 0.07 0.07 79 1008.8
20260506123435 48 37 6.0 10.0 0.05 0.06 0.07 79 1008.8
20260506122434 48 39 4.0 12.0 0.04 0.06 0.06 80 1008.8
20260506121935 48 13 4.0 8.0 0.03 0.05 0.06 80 1008.8
20260506121435 48 24 4.0 9.0 0.04 0.05 0.05 80 1008.8
20260506115433 48 32 7.0 11.0 0.02 0.03 0.03 77 1008.6
20260506114933 48 66 6.0 13.0 0.03 0.03 0.03 77 1008.6
20260506114428 48 41 6.0 13.0 0.02 0.02 0.02 77 1008.5
20260506113930 48 41 5.0 12.0 0.02 0.02 0.02 77 1008.5
20260506113416 48 33 5.0 11.0 0.02 0.02 0.02 77 1008.6
20260506112910 49 41 5.0 11.0 0.02 0.02 0.02 76 1008.5
20260506112403 49 12 5.0 11.0 0.02 0.02 0.02 77 1008.5
20260506111857 49 40 6.0 12.0 0.02 0.02 0.02 76 1008.5
20260506110847 49 45 5.0 10.0 0.01 0.01 0.01 75 1008.4
20260506105328 49 60 5.0 12.0 0.01 0.01 0.01 73 1008.4
20260506104823 49 39 6.0 12.0 0.00 0.00 0.00 73 1008.4
20260506104316 49 32 7.0 15.0 0.00 0.00 0.00 71 1008.4
20260506103810 49 36 8.0 16.0 0.00 0.00 0.00 71 1008.4
20260506102759 50 53 7.0 14.0 0.00 0.00 0.00 73 1008.4
20260506102252 50 354 9.0 15.0 0.00 0.00 0.00 71 1008.3
20260506101746 50 53 8.0 14.0 0.00 0.00 0.00 70 1008.3
20260506101240 50 28 8.0 16.0 0.00 0.00 0.00 70 1008.2
20260506100734 50 42 7.0 16.0 0.00 0.00 0.00 70 1008.2
20260506100228 50 8 7.0 16.0 0.00 0.00 0.00 69 1008.1
20260506095722 50 10 7.0 16.0 0.00 0.00 0.00 69 1008.1
20260506095217 50 3 8.0 16.0 0.00 0.00 0.00 70 1008.1
20260506094710 51 35 7.0 13.0 0.00 0.00 0.00 69 1008.1
20260506093659 51 29 7.0 14.0 0.00 0.00 0.00 66 1008.0
20260506093153 51 39 7.0 17.0 0.00 0.00 0.00 65 1008.1
20260506092649 51 28 6.0 17.0 0.00 0.00 0.00 64 1008.0
20260506092140 51 25 6.0 13.0 0.00 0.00 0.00 65 1008.0
20260506091635 51 30 6.0 14.0 0.00 0.00 0.00 64 1008.0
20260506091129 51 31 6.0 14.0 0.00 0.00 0.00 64 1008.0
20260506090623 51 10 6.0 12.0 0.00 0.00 0.00 64 1007.9
20260506090125 51 38 6.0 13.0 0.00 0.00 0.00 65 1008.0
20260506085610 50 44 6.0 13.0 0.00 0.00 0.00 65 1007.9
20260506085104 50 18 6.0 13.0 0.00 0.00 0.00 65 1008.0
20260506084558 50 9 6.0 13.0 0.00 0.00 0.00 66 1008.0
20260506084052 50 41 6.0 11.0 0.00 0.00 0.00 66 1007.9
20260506083040 50 355 8.0 14.0 0.00 0.00 0.00 65 1007.8
20260506082534 50 26 7.0 14.0 0.00 0.00 0.00 65 1007.8
20260506082029 50 69 7.0 13.0 0.00 0.00 0.00 65 1007.7
20260506081530 51 43 7.0 13.0 0.00 0.00 0.00 65 1007.7
20260506081030 51 53 6.0 14.0 0.00 0.00 0.00 65 1007.5
20260506080530 51 23 6.0 14.0 0.00 0.00 0.00 65 1007.5
20260506073030 50 56 6.0 14.0 0.00 0.00 0.00 70 1007.3
20260506072524 50 31 7.0 15.0 0.00 0.00 0.00 70 1007.3
20260506072023 50 10 7.0 15.0 0.00 0.00 0.00 70 1007.3
20260506071524 49 7 6.0 14.0 0.00 0.00 0.00 71 1007.3
20260506071023 49 18 6.0 14.0 0.00 0.00 0.00 72 1007.3
20260506070523 49 43 6.0 13.0 0.00 0.00 0.00 73 1007.3
20260506062019 49 3 4.0 11.0 0.00 0.00 0.00 77 1007.2
20260506061019 48 33 5.0 10.0 0.00 0.00 0.00 77 1007.2
20260506050954 49 37 5.0 11.0 0.00 0.00 0.00 75 1007.3
20260506050449 49 348 5.0 11.0 0.00 0.00 0.00 75 1007.3
20260506044932 49 35 5.0 10.0 0.00 0.00 0.00 73 1007.3
20260506043919 49 20 5.0 13.0 0.00 0.00 0.00 71 1007.3
20260506043414 49 352 4.0 10.0 0.00 0.00 0.00 71 1007.3
20260506042401 49 352 4.0 8.0 0.00 0.00 0.00 71 1007.3
20260506041855 49 38 4.0 8.0 0.00 0.00 0.00 71 1007.3
20260506041350 49 44 4.0 8.0 0.00 0.00 0.00 72 1007.3
20260506040843 49 24 3.0 8.0 0.00 0.00 0.00 72 1007.2
20260506040337 49 45 3.0 7.0 0.00 0.00 0.00 73 1007.3
20260506035831 49 21 3.0 7.0 0.00 0.00 0.00 73 1007.2
20260506035325 49 29 3.0 7.0 0.00 0.00 0.00 73 1007.2
20260506034820 50 35 4.0 10.0 0.00 0.00 0.00 73 1007.2
20260506034313 50 28 4.0 10.0 0.00 0.00 0.00 73 1007.2
20260506033301 50 10 4.0 8.0 0.00 0.00 0.00 73 1007.3
20260506032758 50 43 4.0 8.0 0.00 0.00 0.00 73 1007.3
20260506032257 50 26 4.0 9.0 0.00 0.00 0.00 73 1007.4
20260506031806 50 26 5.0 11.0 0.00 0.00 0.00 73 1007.4
20260506031257 50 8 4.0 11.0 0.00 0.00 0.00 73 1007.4
20260506030757 50 27 4.0 8.0 0.00 0.00 0.00 73 1007.4
20260506030256 50 40 4.0 11.0 0.00 0.00 0.00 73 1007.5
20260506025756 50 8 5.0 11.0 0.00 0.00 0.00 73 1007.6
20260506025255 50 17 5.0 9.0 0.00 0.00 0.00 73 1007.6
20260506024755 50 10 4.0 9.0 0.00 0.01 0.00 74 1007.6
20260506024301 50 15 3.0 11.0 0.00 0.01 0.00 74 1007.7
20260506023756 50 43 4.0 11.0 0.00 0.01 0.00 74 1007.7
20260506022753 50 35 4.0 10.0 0.00 0.01 0.00 75 1007.7
20260506021753 50 37 4.0 10.0 0.00 0.02 0.00 75 1007.7
20260506021249 50 40 4.0 10.0 0.00 0.02 0.00 75 1007.7
20260506020749 50 42 4.0 10.0 0.00 0.02 0.00 75 1007.8
20260506020252 50 23 4.0 10.0 0.00 0.02 0.00 75 1007.8
20260506015744 50 17 4.0 9.0 0.00 0.02 0.00 74 1007.9
20260506014743 51 19 5.0 11.0 0.00 0.03 0.00 74 1007.9
20260506014243 51 11 5.0 11.0 0.00 0.03 0.00 74 1007.9
20260506013742 51 355 5.0 10.0 0.00 0.03 0.00 74 1007.9
20260506013243 51 45 5.0 10.0 0.00 0.03 0.00 74 1007.9
20260506012744 51 33 5.0 11.0 0.00 0.03 0.00 74 1007.9
20260506011743 51 47 4.0 10.0 0.00 0.03 0.00 74 1007.9
20260506011244 51 31 5.0 10.0 0.00 0.03 0.00 74 1007.9
20260506010743 51 20 5.0 13.0 0.00 0.03 0.00 74 1007.9
20260506005744 51 43 4.0 10.0 0.00 0.03 0.00 75 1008.0
20260506004744 51 54 4.0 9.0 0.00 0.03 0.00 75 1008.1
20260506004244 51 18 4.0 10.0 0.00 0.03 0.00 75 1008.1
20260506003742 51 39 4.0 13.0 0.00 0.03 0.00 75 1008.1
20260506003245 51 32 5.0 13.0 0.00 0.04 0.00 75 1008.2
20260506002744 51 35 4.0 9.0 0.00 0.04 0.00 75 1008.2
20260506001741 51 18 3.0 8.0 0.00 0.05 0.00 76 1008.2
20260506000742 51 24 3.0 8.0 0.00 0.05 0.00 76 1008.2
20260506000241 51 47 3.0 8.0 0.00 0.06 0.00 76 1008.3
20260505235741 51 24 4.0 8.0 0.00 0.06 0.00 76 1008.4
20260505235240 51 5 4.0 8.0 0.00 0.06 0.00 76 1008.4
20260505234741 51 47 4.0 8.0 0.00 0.08 0.00 77 1008.4
20260505234240 52 23 4.0 8.0 0.00 0.09 0.00 77 1008.5
20260505233738 51 35 3.0 8.0 0.00 0.11 0.00 77 1008.6
20260505232736 52 16 3.0 7.0 0.00 0.13 0.00 77 1008.5
20260505232238 52 30 3.0 7.0 0.00 0.13 0.00 77 1008.6
20260505231736 52 29 3.0 7.0 0.00 0.13 0.00 77 1008.6
20260505231231 52 38 3.0 7.0 0.00 0.13 0.00 76 1008.6
20260505230724 52 22 2.0 6.0 0.00 0.14 0.00 76 1008.6
20260505230221 52 17 2.0 6.0 0.00 0.14 0.00 76 1008.7
20260505225720 52 33 3.0 8.0 0.00 0.16 0.00 76 1008.6
20260505225222 52 44 3.0 8.0 0.00 0.17 0.00 75 1008.7
20260505224721 52 50 2.0 6.0 0.00 0.18 0.00 75 1008.7
20260505224221 52 36 4.0 9.0 0.00 0.18 0.00 75 1008.7
20260505223222 52 28 3.0 7.0 0.00 0.18 0.00 76 1008.7
20260505222719 52 20 3.0 9.0 0.00 0.18 0.00 76 1008.7
20260505222218 52 57 4.0 9.0 0.00 0.18 0.00 76 1008.8
20260505221720 52 20 3.0 8.0 0.00 0.18 0.00 77 1008.8
20260505221220 52 20 3.0 8.0 0.00 0.18 0.00 77 1008.8
20260505220718 52 5 2.0 8.0 0.00 0.18 0.00 77 1008.8
20260505220219 52 13 2.0 8.0 0.00 0.18 0.00 78 1008.9
20260505215718 52 353 3.0 8.0 0.00 0.18 0.18 78 1009.0
20260505214717 52 2 3.0 7.0 0.00 0.18 0.18 79 1009.1
20260505214218 52 28 3.0 7.0 0.00 0.18 0.18 79 1009.0
20260505212700 53 22 2.0 4.0 0.00 0.18 0.18 81 1009.1
20260505211142 53 10 3.0 6.0 0.00 0.18 0.18 81 1009.2
20260505210636 53 13 3.0 7.0 0.00 0.18 0.18 81 1009.2
20260505210130 53 356 3.0 7.0 0.00 0.18 0.18 81 1009.2
20260505205623 53 359 2.0 5.0 0.00 0.18 0.18 82 1009.2
20260505205118 53 1 2.0 4.0 0.00 0.18 0.18 82 1009.2
20260505204613 53 20 2.0 6.0 0.00 0.18 0.18 82 1009.2
20260505204107 53 11 2.0 6.0 0.00 0.18 0.18 82 1009.1
20260505203056 53 14 2.0 7.0 0.00 0.18 0.18 82 1009.2
20260505202551 53 343 3.0 8.0 0.00 0.18 0.18 82 1009.2
20260505201030 53 18 3.0 7.0 0.00 0.18 0.18 82 1009.1
20260505200525 53 8 3.0 8.0 0.00 0.18 0.18 82 1009.1
20260505200018 53 17 3.0 8.0 0.00 0.18 0.18 82 1009.1
20260505195511 53 24 3.0 8.0 0.00 0.18 0.18 82 1009.1
20260505195006 53 24 3.0 8.0 0.00 0.18 0.18 82 1009.1
20260505194500 53 5 3.0 8.0 0.00 0.18 0.18 82 1009.1
20260505193449 53 346 1.0 4.0 0.00 0.18 0.18 82 1009.1
20260505192943 53 1 1.0 4.0 0.00 0.18 0.18 82 1009.1
20260505192436 53 344 2.0 7.0 0.00 0.18 0.18 82 1009.0
20260505191930 53 343 3.0 7.0 0.00 0.18 0.18 82 1009.0
20260505190927 53 5 4.0 8.0 0.00 0.18 0.18 81 1008.9
20260505190411 53 349 4.0 8.0 0.00 0.18 0.18 81 1008.8
20260505185406 53 3 4.0 9.0 0.00 0.18 0.18 81 1008.8
20260505184908 53 3 4.0 8.0 0.00 0.18 0.18 81 1008.9
20260505184406 53 342 4.0 9.0 0.00 0.18 0.18 81 1008.8
20260505183906 53 334 4.0 10.0 0.00 0.18 0.18 81 1008.8
20260505183405 53 4 5.0 12.0 0.00 0.18 0.18 81 1008.8
20260505182905 53 346 4.0 12.0 0.00 0.18 0.18 81 1008.9
20260505182405 53 359 4.0 11.0 0.00 0.18 0.18 81 1008.8
20260505181902 53 11 4.0 11.0 0.00 0.18 0.18 81 1008.8
20260505181403 53 314 4.0 11.0 0.00 0.18 0.18 81 1008.8
20260505180400 53 334 4.0 11.0 0.00 0.18 0.18 81 1008.8
20260505175900 53 7 5.0 10.0 0.00 0.18 0.18 80 1008.9